Regional Weather Roundup
Issued by NWS

Home | Current Version | Previous Version | Graphics & Text | Print | Product List | Glossary On
Versions: 1 2 3 4 5 6 7 8 9 10 11 12 13 14 15 16 17 18 19 20 21 22 23 24 25 26 27 28 29 30 31 32 33 34 35 36 37 38 39 40 41 42 43 44 45 46 47 48 49 50
000
ASUS43 KIND 260659
RWRIN

WEATHER ROUNDUP FOR INDIANA
NATIONAL WEATHER SERVICE INDIANAPOLIS IN
200 AM EST SUN FEB 26 2017

NOTE: "FAIR" INDICATES FEW OR NO CLOUDS BELOW 12,000 FEET WITH NO
SIGNIFICANT WEATHER AND/OR OBSTRUCTIONS TO VISIBILITY.

* - STATION DOES NOT REPORT WEATHER SUCH AS PRECIPITATION OR FOG.

+ - STATION NOT QUALITY CONTROLLED BY THE NATIONAL WEATHER SERVICE.
    USE DATA WITH CAUTION...ESPECIALLY DEWPOINT AND RELATIVE
    HUMIDITY OBSERVATIONS.

INZ001>003-010>013-019-020-260800-
NORTHWEST INDIANA

CITY           SKY/WX    TMP DP  RH WIND       PRES   REMARKS
KNOX *+        PTCLDY    25   0  33 W7        30.08R WCI  17

$$

LMZ046-743>745-260800-
SOUTHERN LAKE MICHIGAN

STATION/POSITION TIME  TEMP    WIND        PRES    WAVE
                       AIR SEA DIR/SP/G            HT
                 (UTC) (F)     (DEG/KT/KT) (MB)    (FT)
BURNS HARBOR     0640   28     290/ 14/ 17 1018.3R
MICHIGAN CITY    0630   27     260/ 15/ 16   N/A

$$

INZ004-005-014>016-021>024-260800-
NORTH CENTRAL INDIANA

CITY           SKY/WX    TMP DP  RH WIND       PRES   REMARKS
GOSHEN         CLOUDY    26  16  65 W12       30.04R WCI  16
SOUTH BEND     CLOUDY    26  16  65 W9        30.05R WCI  17

$$

INZ006>009-017-018-025>027-260800-
NORTHEAST INDIANA

CITY           SKY/WX    TMP DP  RH WIND       PRES   REMARKS
ANGOLA *+      CLOUDY    25  21  86 W3        30.02R
FORT WAYNE     FLURRIES  27  20  75 W8        30.05R WCI  19
KENDALLVILLE + FLURRIES  25  18  74 W10       30.03R WCI  15

$$

INZ028-029-035-036-043>045-051>053-260800-
WEST CENTRAL INDIANA

CITY           SKY/WX    TMP DP  RH WIND       PRES   REMARKS
LAFAYETTE      CLEAR     22  18  85 W5        30.11R WCI  16
TERRE HAUTE    CLEAR     25  14  63 NW3       30.13S

$$

INZ030>032-037>040-046>048-054>057-064-065-260800-
CENTRAL INDIANA

CITY           SKY/WX    TMP DP  RH WIND       PRES   REMARKS
GREENWOOD *+   CLEAR     27  17  67 W7        30.10R WCI  19
INDIANAPOLIS   PTCLDY    23  16  74 W8        30.10R WCI  14
-EAGLE CREEK   CLEAR     26  16  65 W6        30.10R WCI  19
KOKOMO +       CLEAR     23  18  81 NW10      30.08R WCI  12
MT COMFORT *+  CLEAR     23  16  74 W7        30.09R WCI  15
SHELBYVILLE    CLEAR     26  15  63 W8        30.10R WCI  18

$$

INZ033-034-041-042-049-050-058-059-260800-
EAST CENTRAL INDIANA

CITY           SKY/WX    TMP DP  RH WIND       PRES   REMARKS
MUNCIE         PTCLDY    26  16  65 NW10      30.06R WCI  16

$$

INZ060-061-067>069-081>083-085>088-260800-
SOUTHWEST INDIANA

CITY           SKY/WX    TMP DP  RH WIND       PRES   REMARKS
EVANSVILLE     CLEAR     30  15  53 NW3       30.17R
HUNTINGBURG *+ CLEAR     27  18  69 CALM      30.15S

$$

INZ062-063-066-070>080-084-089>092-260800-
SOUTH CENTRAL AND SOUTHEAST INDIANA

CITY           SKY/WX    TMP DP  RH WIND       PRES   REMARKS
BLOOMINGTON    CLEAR     26  14  60 NW6       30.11R WCI  19
MADISON *+     CLEAR     28  19  69 W3        30.13R
SEYMOUR +      CLEAR     27  16  63 W5        30.13R WCI  21

$$




USA.gov is the U.S. government's official web portal to all federal, state and local government web resources and services.